Location: Newark
(40.9833°N, 0.0333°W)
Time: 09:30:54
(UTC+00:00)

Transit 4A - Pass Details

Date: 02 November 2020
Orbit: 862 x 982 km, 66.8° (Epoch: 26 November)

Event Time Altitude Azimuth Distance (km) Brightness Sun altitude
Rises 23:16:46 0° 327° (NNW) 3,690 - -63.5°
Reaches altitude 10° 23:19:23 10° 324° (NW) 2,733 - -63.6°
Maximum altitude 23:25:40 61° 246° (WSW) 1,088 - -63.9°
Drops below altitude 10° 23:31:47 10° 167° (SSE) 2,659 - -64.0°
Sets 23:34:18 0° 164° (SSE) 3,582 - -64.1°
